owner,sensor,date,latitude,longitude,vertical_datum,direction_of_sea_water_velocity,sea_water_speed,upward_sea_water_velocity,qcFlag 
ADCP,ioos:station:wmo:42368:1,2016-09-22T13:18:00Z,27.2040,-92.2030,73.9,80.0,11.3,2.9,'1111122,1111122,1111122' 
ADCP,ioos:station:wmo:42368:1,2016-09-22T14:28:00Z,27.2040,-92.2030,73.9,71.0,17.7,0.3,'1111122,1111122,1111122' 
ADCP,ioos:station:wmo:42368:1,2016-09-22T15:18:00Z,27.2040,-92.2030,73.9,63.0,20.2,-0.3,'1111122,1111122,1111122' 
ADCP,ioos:station:wmo:42368:1,2016-09-22T16:20:00Z,27.2040,-92.2030,73.9,56.0,25.2,-0.1,'1111122,1111122,1111122' 
ADCP,ioos:station:wmo:42368:1,2016-09-22T18:20:00Z,27.2040,-92.2030,73.9,50.0,14.8,-1.7,'1111122,1111122,1111122' 
ADCP,ioos:station:wmo:42368:1,2016-09-22T19:20:00Z,27.2040,-92.2030,73.9,50.0,13.8,-1.4,'1111122,1111122,1111122' 
ADCP,ioos:station:wmo:42368:1,2016-09-22T20:20:00Z,27.2040,-92.2030,73.9,51.0,17.0,-0.3,'1111122,1111122,1111122' 
ADCP,ioos:station:wmo:42368:1,2016-09-22T21:20:00Z,27.2040,-92.2030,73.9,55.0,19.2,0.1,'1111122,1111122,1111122' 
ADCP,ioos:station:wmo:42368:1,2016-09-22T22:20:00Z,27.2040,-92.2030,73.9,58.0,21.6,0.8,'1111122,1111122,1111122' 
ADCP,ioos:station:wmo:42368:1,2016-09-22T23:20:00Z,27.2040,-92.2030,73.9,58.0,21.5,2.2,'1111122,1111122,1111122' 
ADCP,ioos:station:wmo:42368:1,2016-09-23T00:20:00Z,27.2040,-92.2030,73.9,53.0,26.4,0.7,'1111122,1111122,1111122' 
ADCP,ioos:station:wmo:42368:1,2016-09-23T01:20:00Z,27.2040,-92.2030,73.9,61.0,25.2,0.2,'1111122,1111122,1111122' 
ADCP,ioos:station:wmo:42368:1,2016-09-23T02:20:00Z,27.2040,-92.2030,73.9,58.0,26.6,1.7,'1111122,1111122,1111122' 
ADCP,ioos:station:wmo:42368:1,2016-09-23T03:20:00Z,27.2040,-92.2030,73.9,65.0,24.8,2.1,'1111122,1111122,1111122' 
ADCP,ioos:station:wmo:42368:1,2016-09-23T04:20:00Z,27.2040,-92.2030,73.9,64.0,23.2,2.2,'1111122,1111122,1111122' 
ADCP,ioos:station:wmo:42368:1,2016-09-23T05:20:00Z,27.2040,-92.2030,73.9,52.0,24.4,2.8,'1111122,1111122,1111122' 
ADCP,ioos:station:wmo:42368:1,2016-09-23T06:20:00Z,27.2040,-92.2030,73.9,58.0,22.7,4.2,'1111122,1111122,1111122' 
ADCP,ioos:station:wmo:42368:1,2016-09-23T07:20:00Z,27.2040,-92.2030,73.9,59.0,19.0,3.0,'1111122,1111122,1111122' 
ADCP,ioos:station:wmo:42368:1,2016-09-23T08:20:00Z,27.2040,-92.2030,73.9,58.0,21.0,2.7,'1111122,1111122,1111122' 
ADCP,ioos:station:wmo:42368:1,2016-09-23T09:20:00Z,27.2040,-92.2030,73.9,61.0,23.2,3.8,'1111122,1111122,1111122' 
ADCP,ioos:station:wmo:42368:1,2016-09-23T10:20:00Z,27.2040,-92.2030,73.9,57.0,23.0,4.6,'1111122,1111122,1111122' 
ADCP,ioos:station:wmo:42368:1,2016-09-23T11:20:00Z,27.2040,-92.2030,73.9,53.0,22.6,3.7,'1111122,1111122,1111122' 
ADCP,ioos:station:wmo:42368:1,2016-09-23T12:20:00Z,27.2040,-92.2030,73.9,55.0,23.2,2.1,'1111122,1111122,1111122' 
ADCP,ioos:station:wmo:42368:1,2016-09-23T13:20:00Z,27.2040,-92.2030,73.9,57.0,25.3,-0.5,'1111122,1111122,1111122' 
ADCP,ioos:station:wmo:42368:1,2016-09-23T14:20:00Z,27.2040,-92.2030,73.9,55.0,23.3,-0.8,'1111122,1111122,1111122' 
ADCP,ioos:station:wmo:42368:1,2016-09-23T15:20:00Z,27.2040,-92.2030,73.9,59.0,23.7,-0.2,'1111122,1111122,1111122' 
ADCP,ioos:station:wmo:42368:1,2016-09-23T16:20:00Z,27.2040,-92.2030,73.9,59.0,23.7,-1.4,'1111122,1111122,1111122' 
ADCP,ioos:station:wmo:42368:1,2016-09-23T18:20:00Z,27.2040,-92.2030,73.9,61.0,20.1,0.5,'1111122,1111122,1111122' 
ADCP,ioos:station:wmo:42368:1,2016-09-23T19:20:00Z,27.2040,-92.2030,73.9,73.0,20.7,0.0,'1111122,1111122,1114422' 
ADCP,ioos:station:wmo:42368:1,2016-09-23T20:20:00Z,27.2040,-92.2030,73.9,68.0,21.4,0.0,'1111122,1111122,1114422' 
ADCP,ioos:station:wmo:42368:1,2016-09-23T21:20:00Z,27.2040,-92.2030,73.9,62.0,19.8,-0.8,'1111122,1111122,1111122' 
ADCP,ioos:station:wmo:42368:1,2016-09-23T22:20:00Z,27.2040,-92.2030,73.9,55.0,18.4,-1.4,'1111122,1111122,1111122' 
ADCP,ioos:station:wmo:42368:1,2016-09-23T23:20:00Z,27.2040,-92.2030,73.8,58.0,23.9,0.6,'1111122,1111122,1111122' 
ADCP,ioos:station:wmo:42368:1,2016-09-24T00:20:00Z,27.2040,-92.2030,73.9,57.0,27.5,2.6,'1111122,1111122,1111122' 
ADCP,ioos:station:wmo:42368:1,2016-09-24T01:20:00Z,27.2040,-92.2030,73.9,60.0,25.5,2.6,'1111122,1111122,1111122' 
ADCP,ioos:station:wmo:42368:1,2016-09-24T02:20:00Z,27.2040,-92.2030,73.9,65.0,25.9,2.5,'1111122,1111122,1111122' 
ADCP,ioos:station:wmo:42368:1,2016-09-24T03:20:00Z,27.2040,-92.2030,73.9,59.0,23.7,2.4,'1111122,1111122,1111122' 
ADCP,ioos:station:wmo:42368:1,2016-09-24T04:20:00Z,27.2040,-92.2030,73.9,60.0,21.3,2.7,'1111122,1111122,1111122' 
ADCP,ioos:station:wmo:42368:1,2016-09-24T05:20:00Z,27.2040,-92.2030,73.8,67.0,17.6,1.6,'1111122,1111122,1111122' 
ADCP,ioos:station:wmo:42368:1,2016-09-24T06:20:00Z,27.2040,-92.2030,73.9,63.0,20.7,0.8,'1111122,1111122,1111122' 
ADCP,ioos:station:wmo:42368:1,2016-09-24T07:20:00Z,27.2040,-92.2030,73.9,55.0,20.8,1.1,'1111122,1111122,1111122' 
ADCP,ioos:station:wmo:42368:1,2016-09-24T08:20:00Z,27.2040,-92.2030,73.8,44.0,16.8,0.8,'1111122,1111122,1111122' 
ADCP,ioos:station:wmo:42368:1,2016-09-24T09:20:00Z,27.2040,-92.2030,73.8,41.0,14.5,0.5,'1111122,1111122,1111122' 
ADCP,ioos:station:wmo:42368:1,2016-09-24T10:20:00Z,27.2040,-92.2030,73.8,38.0,16.7,0.4,'1111122,1111122,1111122' 
ADCP,ioos:station:wmo:42368:1,2016-09-24T11:20:00Z,27.2040,-92.2030,73.8,32.0,20.4,1.2,'1111122,1111122,1111122' 
ADCP,ioos:station:wmo:42368:1,2016-09-24T14:20:00Z,27.2040,-92.2030,73.8,25.0,21.4,-1.9,'1111122,1111122,1111122' 
ADCP,ioos:station:wmo:42368:1,2016-09-24T15:20:00Z,27.2040,-92.2030,73.8,24.0,20.5,-1.2,'1111122,1111122,1111122' 
ADCP,ioos:station:wmo:42368:1,2016-09-24T16:20:00Z,27.2040,-92.2030,73.8,27.0,21.0,-0.8,'1111122,1111122,1111122' 
ADCP,ioos:station:wmo:42368:1,2016-09-24T17:20:00Z,27.2040,-92.2030,73.9,30.0,18.7,-0.2,'1111122,1111122,1111122' 
ADCP,ioos:station:wmo:42368:1,2016-09-24T18:20:00Z,27.2040,-92.2030,73.8,43.0,16.5,0.2,'1111122,1111122,1111122' 
ADCP,ioos:station:wmo:42368:1,2016-09-24T19:20:00Z,27.2040,-92.2030,73.8,31.0,18.7,-2.6,'1111122,1111122,1111122' 
ADCP,ioos:station:wmo:42368:1,2016-09-24T20:20:00Z,27.2040,-92.2030,73.8,35.0,16.6,-1.2,'1111122,1111122,1111122' 
ADCP,ioos:station:wmo:42368:1,2016-09-24T21:20:00Z,27.2040,-92.2030,73.8,25.0,12.6,-0.7,'1111122,1111122,1111122' 
ADCP,ioos:station:wmo:42368:1,2016-09-24T22:20:00Z,27.2040,-92.2030,73.8,20.0,13.3,0.3,'1111122,1111122,1111122' 
ADCP,ioos:station:wmo:42368:1,2016-09-24T23:19:00Z,27.2040,-92.2030,73.8,21.0,14.8,0.3,'1111122,1111122,1111122' 
ADCP,ioos:station:wmo:42368:1,2016-09-25T00:19:00Z,27.2040,-92.2030,73.9,20.0,21.2,-1.1,'1111122,1111122,1111122' 
ADCP,ioos:station:wmo:42368:1,2016-09-25T01:19:00Z,27.2040,-92.2030,73.9,21.0,22.7,-0.8,'1111122,1111122,1111122' 
ADCP,ioos:station:wmo:42368:1,2016-09-25T02:19:00Z,27.2040,-92.2030,73.8,10.0,20.2,0.8,'1111122,1111122,1111122' 
ADCP,ioos:station:wmo:42368:1,2016-09-25T03:19:00Z,27.2040,-92.2030,73.8,11.0,18.5,0.5,'1111122,1111122,1111122' 
ADCP,ioos:station:wmo:42368:1,2016-09-25T05:09:00Z,27.2040,-92.2030,73.8,9.0,17.5,0.6,'1111122,1111122,1111122' 
ADCP,ioos:station:wmo:42368:1,2016-09-25T06:19:00Z,27.2040,-92.2030,73.8,7.0,14.8,1.2,'1111122,1111122,1111122' 
ADCP,ioos:station:wmo:42368:1,2016-09-25T07:19:00Z,27.2040,-92.2030,73.8,14.0,12.1,1.3,'1111122,1111122,1111122' 
ADCP,ioos:station:wmo:42368:1,2016-09-25T10:19:00Z,27.2040,-92.2030,73.8,7.0,14.9,0.5,'1111122,1111122,1111122' 
ADCP,ioos:station:wmo:42368:1,2016-09-25T11:19:00Z,27.2040,-92.2030,73.8,8.0,18.3,1.7,'1111122,1111122,1111122' 
ADCP,ioos:station:wmo:42368:1,2016-09-25T13:19:00Z,27.2040,-92.2030,73.8,342.0,13.8,-0.4,'1111122,1111122,1111122' 
ADCP,ioos:station:wmo:42368:1,2016-09-25T14:19:00Z,27.2040,-92.2030,73.8,5.0,16.0,0.9,'1111122,1111122,1111122' 
ADCP,ioos:station:wmo:42368:1,2016-09-25T15:19:00Z,27.2040,-92.2030,73.8,348.0,11.6,-0.5,'1111122,1111122,1111122' 
ADCP,ioos:station:wmo:42368:1,2016-09-25T16:19:00Z,27.2040,-92.2030,73.9,342.0,12.6,-3.4,'1111122,1111122,1111122' 
ADCP,ioos:station:wmo:42368:1,2016-09-25T18:19:00Z,27.2040,-92.2030,73.9,334.0,16.1,-2.3,'1111122,1111122,1111122' 
ADCP,ioos:station:wmo:42368:1,2016-09-25T19:19:00Z,27.2040,-92.2030,73.8,358.0,16.7,-1.4,'1111122,1111122,1111122' 
ADCP,ioos:station:wmo:42368:1,2016-09-25T20:19:00Z,27.2040,-92.2030,73.8,5.0,12.7,-1.5,'1111122,1111122,1111122' 
ADCP,ioos:station:wmo:42368:1,2016-09-25T21:20:00Z,27.2040,-92.2030,73.9,350.0,17.2,0.2,'1111122,1111122,1111122' 
ADCP,ioos:station:wmo:42368:1,2016-09-25T22:19:00Z,27.2040,-92.2030,73.9,352.0,18.4,-0.4,'1111122,1111122,1111122' 
ADCP,ioos:station:wmo:42368:1,2016-09-25T23:19:00Z,27.2040,-92.2030,73.9,348.0,20.9,1.2,'1111122,1111122,1111122' 
ADCP,ioos:station:wmo:42368:1,2016-09-26T00:19:00Z,27.2040,-92.2030,73.8,358.0,23.3,0.5,'1111122,1111122,1111122' 
ADCP,ioos:station:wmo:42368:1,2016-09-26T01:19:00Z,27.2040,-92.2030,73.8,359.0,23.9,1.0,'1111122,1111122,1111122' 
ADCP,ioos:station:wmo:42368:1,2016-09-26T02:19:00Z,27.2040,-92.2030,73.8,356.0,22.6,-0.1,'1111122,1111122,1111122' 
ADCP,ioos:station:wmo:42368:1,2016-09-26T03:19:00Z,27.2040,-92.2030,73.8,355.0,22.9,1.2,'1111122,1111122,1111122' 
ADCP,ioos:station:wmo:42368:1,2016-09-26T04:19:00Z,27.2040,-92.2030,73.8,353.0,23.8,1.1,'1111122,1111122,1111122' 
ADCP,ioos:station:wmo:42368:1,2016-09-26T05:19:00Z,27.2040,-92.2030,73.8,353.0,25.6,1.9,'1111122,1111122,1111122' 
ADCP,ioos:station:wmo:42368:1,2016-09-26T06:19:00Z,27.2040,-92.2030,73.8,356.0,21.8,2.4,'1111122,1111122,1111122' 
ADCP,ioos:station:wmo:42368:1,2016-09-26T07:19:00Z,27.2040,-92.2030,73.8,349.0,22.2,2.4,'1111122,1111122,1111122' 
ADCP,ioos:station:wmo:42368:1,2016-09-26T08:19:00Z,27.2040,-92.2030,73.8,331.0,19.3,2.5,'1111122,1111122,1111122' 
ADCP,ioos:station:wmo:42368:1,2016-09-26T09:19:00Z,27.2040,-92.2030,73.9,338.0,19.8,2.3,'1111122,1111122,1111122' 
ADCP,ioos:station:wmo:42368:1,2016-09-26T10:19:00Z,27.2040,-92.2030,73.8,331.0,19.0,2.2,'1111122,1111122,1111122' 
ADCP,ioos:station:wmo:42368:1,2016-09-26T11:19:00Z,27.2040,-92.2030,73.8,322.0,22.1,1.4,'1111122,1111122,1111122' 
ADCP,ioos:station:wmo:42368:1,2016-09-26T12:19:00Z,27.2040,-92.2030,73.8,305.0,21.0,0.0,'1111122,1111122,1114422' 
ADCP,ioos:station:wmo:42368:1,2016-09-26T13:19:00Z,27.2040,-92.2030,73.8,307.0,23.0,0.8,'1111122,1111122,1111122' 
ADCP,ioos:station:wmo:42368:1,2016-09-26T14:19:00Z,27.2040,-92.2030,73.8,321.0,22.8,2.7,'1111122,1111122,1111122' 
ADCP,ioos:station:wmo:42368:1,2016-09-26T15:19:00Z,27.2040,-92.2030,73.9,322.0,20.3,1.7,'1111122,1111122,1111122' 
ADCP,ioos:station:wmo:42368:1,2016-09-26T16:19:00Z,27.2040,-92.2030,73.9,335.0,19.0,0.4,'1111122,1111122,1111122' 
ADCP,ioos:station:wmo:42368:1,2016-09-26T17:19:00Z,27.2040,-92.2030,73.9,327.0,18.7,0.8,'1111122,1111122,1111122' 
ADCP,ioos:station:wmo:42368:1,2016-09-26T18:19:00Z,27.2040,-92.2030,73.8,316.0,22.1,2.4,'1111122,1111122,1111122' 
ADCP,ioos:station:wmo:42368:1,2016-09-26T19:19:00Z,27.2040,-92.2030,73.8,314.0,19.0,0.3,'1111122,1111122,1111122' 
ADCP,ioos:station:wmo:42368:1,2016-09-26T20:19:00Z,27.2040,-92.2030,73.8,314.0,18.0,2.0,'1111122,1111122,1111122' 
ADCP,ioos:station:wmo:42368:1,2016-09-26T21:19:00Z,27.2040,-92.2030,73.9,315.0,20.1,3.1,'1111122,1111122,1111122' 
ADCP,ioos:station:wmo:42368:1,2016-09-26T22:19:00Z,27.2040,-92.2030,73.8,310.0,20.4,3.5,'1111122,1111122,1111122' 
ADCP,ioos:station:wmo:42368:1,2016-09-26T23:19:00Z,27.2040,-92.2030,73.8,315.0,20.2,4.1,'1111122,1111122,1111122' 
ADCP,ioos:station:wmo:42368:1,2016-09-27T00:19:00Z,27.2040,-92.2030,73.8,329.0,21.8,5.8,'1111122,1111122,1111122' 
ADCP,ioos:station:wmo:42368:1,2016-09-27T01:19:00Z,27.2040,-92.2030,73.8,321.0,22.8,3.6,'1111122,1111122,1111122' 
ADCP,ioos:station:wmo:42368:1,2016-09-27T02:19:00Z,27.2040,-92.2030,73.8,328.0,26.1,4.4,'1111122,1111122,1111122' 
ADCP,ioos:station:wmo:42368:1,2016-09-27T03:19:00Z,27.2040,-92.2030,73.8,335.0,26.8,4.3,'1111122,1111122,1111122' 
ADCP,ioos:station:wmo:42368:1,2016-09-27T04:19:00Z,27.2040,-92.2030,73.8,339.0,28.7,4.4,'1111122,1111122,1111122' 
ADCP,ioos:station:wmo:42368:1,2016-09-27T05:19:00Z,27.2040,-92.2030,73.8,345.0,30.1,3.3,'1111122,1111122,1111122' 
ADCP,ioos:station:wmo:42368:1,2016-09-27T06:19:00Z,27.2040,-92.2030,73.8,343.0,25.6,3.8,'1111122,1111122,1111122' 
ADCP,ioos:station:wmo:42368:1,2016-09-27T07:19:00Z,27.2040,-92.2030,73.8,334.0,25.4,3.8,'1111122,1111122,1111122' 
ADCP,ioos:station:wmo:42368:1,2016-09-27T08:19:00Z,27.2040,-92.2030,73.9,332.0,23.5,3.9,'1111122,1111122,1111122' 
ADCP,ioos:station:wmo:42368:1,2016-09-27T09:19:00Z,27.2040,-92.2030,73.9,328.0,20.4,4.6,'1111122,1111122,1111122' 
ADCP,ioos:station:wmo:42368:1,2016-09-27T10:19:00Z,27.2040,-92.2030,73.9,319.0,20.0,4.2,'1111122,1111122,1111122' 
ADCP,ioos:station:wmo:42368:1,2016-09-27T11:19:00Z,27.2040,-92.2030,73.8,313.0,21.8,2.8,'1111122,1111122,1111122' 
ADCP,ioos:station:wmo:42368:1,2016-09-27T12:19:00Z,27.2040,-92.2030,73.9,300.0,19.9,0.5,'1111122,1111122,1111122' 
ADCP,ioos:station:wmo:42368:1,2016-09-27T13:19:00Z,27.2040,-92.2030,73.9,313.0,17.5,1.6,'1111122,1111122,1111122' 
ADCP,ioos:station:wmo:42368:1,2016-09-27T14:19:00Z,27.2040,-92.2030,73.9,303.0,16.4,0.8,'1111122,1111122,1111122' 
ADCP,ioos:station:wmo:42368:1,2016-09-27T15:19:00Z,27.2040,-92.2030,73.9,308.0,16.4,1.7,'1111122,1111122,1111122' 
ADCP,ioos:station:wmo:42368:1,2016-09-27T16:19:00Z,27.2040,-92.2030,73.9,304.0,18.6,2.2,'1111122,1111122,1111122' 
ADCP,ioos:station:wmo:42368:1,2016-09-27T17:19:00Z,27.2040,-92.2030,73.9,302.0,17.6,2.9,'1111122,1111122,1111122' 
ADCP,ioos:station:wmo:42368:1,2016-09-27T18:19:00Z,27.2040,-92.2030,73.9,301.0,11.7,1.7,'1111122,1111122,1111122' 
ADCP,ioos:station:wmo:42368:1,2016-09-27T19:19:00Z,27.2040,-92.2030,73.9,289.0,11.7,2.4,'1111122,1111122,1111122' 
ADCP,ioos:station:wmo:42368:1,2016-09-27T20:19:00Z,27.2040,-92.2030,73.9,304.0,19.6,3.3,'1111122,1111122,1111122' 
ADCP,ioos:station:wmo:42368:1,2016-09-27T21:19:00Z,27.2040,-92.2030,73.9,302.0,24.1,3.0,'1111122,1111122,1111122' 
ADCP,ioos:station:wmo:42368:1,2016-09-27T22:19:00Z,27.2040,-92.2030,73.9,299.0,23.7,2.4,'1111122,1111122,1111122' 
ADCP,ioos:station:wmo:42368:1,2016-09-27T23:19:00Z,27.2040,-92.2030,73.9,301.0,23.8,2.7,'1111122,1111122,1111122' 
ADCP,ioos:station:wmo:42368:1,2016-09-28T00:19:00Z,27.2040,-92.2030,73.9,312.0,27.1,3.1,'1111122,1111122,1111122' 
ADCP,ioos:station:wmo:42368:1,2016-09-28T01:19:00Z,27.2040,-92.2030,73.9,317.0,28.1,1.3,'1111122,1111122,1111122' 
ADCP,ioos:station:wmo:42368:1,2016-09-28T02:19:00Z,27.2040,-92.2030,73.9,323.0,30.3,1.6,'1111122,1111122,1111122' 
ADCP,ioos:station:wmo:42368:1,2016-09-28T03:19:00Z,27.2040,-92.2030,73.9,318.0,29.7,1.1,'1111122,1111122,1111122' 
ADCP,ioos:station:wmo:42368:1,2016-09-28T04:19:00Z,27.2040,-92.2030,73.9,320.0,31.3,0.6,'1111122,1111122,1111122' 
ADCP,ioos:station:wmo:42368:1,2016-09-28T05:19:00Z,27.2040,-92.2030,73.9,324.0,29.5,1.2,'1111122,1111122,1111122' 
ADCP,ioos:station:wmo:42368:1,2016-09-28T06:19:00Z,27.2040,-92.2030,73.9,326.0,28.2,0.9,'1111122,1111122,1111122' 
ADCP,ioos:station:wmo:42368:1,2016-09-28T07:19:00Z,27.2040,-92.2030,73.9,316.0,28.6,2.8,'1111122,1111122,1111122' 
ADCP,ioos:station:wmo:42368:1,2016-09-28T08:19:00Z,27.2040,-92.2030,73.9,308.0,26.6,2.9,'1111122,1111122,1111122' 
ADCP,ioos:station:wmo:42368:1,2016-09-28T09:19:00Z,27.2040,-92.2030,73.8,310.0,23.7,2.4,'1111122,1111122,1111122' 
ADCP,ioos:station:wmo:42368:1,2016-09-28T10:19:00Z,27.2040,-92.2030,73.9,314.0,24.2,2.8,'1111122,1111122,1111122' 
ADCP,ioos:station:wmo:42368:1,2016-09-28T11:19:00Z,27.2040,-92.2030,73.8,303.0,20.2,0.2,'1111122,1111122,1111122' 
ADCP,ioos:station:wmo:42368:1,2016-09-28T12:19:00Z,27.2040,-92.2030,73.9,285.0,22.1,0.7,'1111122,1111122,1111122' 
ADCP,ioos:station:wmo:42368:1,2016-09-28T13:19:00Z,27.2040,-92.2030,73.9,306.0,24.6,0.5,'1111122,1111122,1111122' 
ADCP,ioos:station:wmo:42368:1,2016-09-28T14:19:00Z,27.2040,-92.2030,73.9,305.0,23.1,2.0,'1111122,1111122,1111122' 
ADCP,ioos:station:wmo:42368:1,2016-09-28T15:19:00Z,27.2040,-92.2030,73.9,306.0,22.3,2.1,'1111122,1111122,1111122' 
ADCP,ioos:station:wmo:42368:1,2016-09-28T16:19:00Z,27.2040,-92.2030,73.9,302.0,24.1,1.3,'1111122,1111122,1111122' 
ADCP,ioos:station:wmo:42368:1,2016-09-28T18:19:00Z,27.2040,-92.2030,73.9,304.0,23.5,1.3,'1111122,1111122,1111122' 
ADCP,ioos:station:wmo:42368:1,2016-09-28T19:39:00Z,27.2040,-92.2030,73.9,300.0,24.5,-0.5,'1111122,1111122,1111122' 
ADCP,ioos:station:wmo:42368:1,2016-09-28T20:39:00Z,27.2040,-92.2030,73.9,299.0,28.5,-1.9,'1111122,1111122,1111122' 
ADCP,ioos:station:wmo:42368:1,2016-09-28T21:39:00Z,27.2040,-92.2030,73.8,293.0,31.1,-1.9,'1111122,1111122,1111122' 
ADCP,ioos:station:wmo:42368:1,2016-09-28T22:39:00Z,27.2040,-92.2030,73.8,298.0,29.3,-3.0,'1111122,1111122,1111122' 
ADCP,ioos:station:wmo:42368:1,2016-09-28T23:19:00Z,27.2040,-92.2030,73.8,297.0,29.1,-2.1,'1111122,1111122,1111122' 
ADCP,ioos:station:wmo:42368:1,2016-09-29T00:19:00Z,27.2040,-92.2030,73.8,305.0,29.7,-1.6,'1111122,1111122,1111122' 
ADCP,ioos:station:wmo:42368:1,2016-09-29T01:19:00Z,27.2040,-92.2030,73.8,311.0,32.3,-0.6,'1111122,1111122,1111122' 
ADCP,ioos:station:wmo:42368:1,2016-09-29T02:19:00Z,27.2040,-92.2030,73.9,317.0,34.6,-1.9,'1111122,1111122,1111122' 
ADCP,ioos:station:wmo:42368:1,2016-09-29T03:19:00Z,27.2040,-92.2030,73.9,316.0,32.5,-1.7,'1111122,1111122,1111122' 
ADCP,ioos:station:wmo:42368:1,2016-09-29T04:19:00Z,27.2040,-92.2030,73.9,315.0,34.3,-2.1,'1111122,1111122,1111122' 
ADCP,ioos:station:wmo:42368:1,2016-09-29T05:19:00Z,27.2040,-92.2030,73.9,318.0,31.7,-1.7,'1111122,1111122,1111122' 
ADCP,ioos:station:wmo:42368:1,2016-09-29T06:29:00Z,27.2040,-92.2030,73.9,317.0,34.6,-2.5,'1111122,1111122,1111122' 
ADCP,ioos:station:wmo:42368:1,2016-09-29T07:29:00Z,27.2040,-92.2030,73.9,315.0,29.3,0.2,'1111122,1111122,1111122' 
ADCP,ioos:station:wmo:42368:1,2016-09-29T08:19:00Z,27.2040,-92.2030,73.9,319.0,28.8,-1.7,'1111122,1111122,1111122' 
ADCP,ioos:station:wmo:42368:1,2016-09-29T09:29:00Z,27.2040,-92.2030,73.9,319.0,28.7,-0.7,'1111122,1111122,1111122' 
ADCP,ioos:station:wmo:42368:1,2016-09-29T10:29:00Z,27.2040,-92.2030,73.9,316.0,25.2,-1.0,'1111122,1111122,1111122' 
ADCP,ioos:station:wmo:42368:1,2016-09-29T11:29:00Z,27.2040,-92.2030,73.9,313.0,25.3,-1.1,'1111122,1111122,1111122' 
ADCP,ioos:station:wmo:42368:1,2016-09-29T12:29:00Z,27.2040,-92.2030,73.9,306.0,23.4,-2.6,'1111122,1111122,1111122' 
ADCP,ioos:station:wmo:42368:1,2016-09-29T13:39:00Z,27.2040,-92.2030,73.9,306.0,23.4,-2.4,'1111122,1111122,1111122' 
ADCP,ioos:station:wmo:42368:1,2016-09-29T14:39:00Z,27.2040,-92.2030,73.9,306.0,24.6,-2.4,'1111122,1111122,1111122' 
ADCP,ioos:station:wmo:42368:1,2016-09-29T15:39:00Z,27.2040,-92.2030,73.9,305.0,24.0,-1.6,'1111122,1111122,1111122' 
ADCP,ioos:station:wmo:42368:1,2016-09-29T16:39:00Z,27.2040,-92.2030,73.9,301.0,24.9,-3.0,'1111122,1111122,1111122' 
ADCP,ioos:station:wmo:42368:1,2016-09-29T17:29:00Z,27.2040,-92.2030,73.8,285.0,31.4,-4.4,'1111122,1111122,1111122' 
ADCP,ioos:station:wmo:42368:1,2016-09-29T18:39:00Z,27.2040,-92.2030,73.9,301.0,27.6,-4.2,'1111122,1111122,1111122' 
ADCP,ioos:station:wmo:42368:1,2016-09-29T19:39:00Z,27.2040,-92.2030,73.9,307.0,24.1,-0.7,'1111122,1111122,1111122' 
ADCP,ioos:station:wmo:42368:1,2016-09-29T21:39:00Z,27.2040,-92.2030,73.9,296.0,29.9,-4.7,'1111122,1111122,1111122' 
ADCP,ioos:station:wmo:42368:1,2016-09-29T22:39:00Z,27.2040,-92.2030,73.9,297.0,32.2,-4.8,'1111122,1111122,1111122' 
ADCP,ioos:station:wmo:42368:1,2016-09-29T23:19:00Z,27.2040,-92.2030,73.9,290.0,35.2,-5.1,'1111122,1111122,1111122' 
ADCP,ioos:station:wmo:42368:1,2016-09-30T00:19:00Z,27.2040,-92.2030,73.9,295.0,35.5,0.3,'1111122,1111122,1111122' 
ADCP,ioos:station:wmo:42368:1,2016-09-30T01:19:00Z,27.2040,-92.2030,73.9,299.0,34.5,-0.6,'1111122,1111122,1111122' 
ADCP,ioos:station:wmo:42368:1,2016-09-30T03:19:00Z,27.2040,-92.2030,73.8,301.0,31.1,-1.2,'1111122,1111122,1111122' 
ADCP,ioos:station:wmo:42368:1,2016-09-30T04:19:00Z,27.2040,-92.2030,73.8,306.0,31.0,-1.5,'1111122,1111122,1111122' 
ADCP,ioos:station:wmo:42368:1,2016-09-30T05:29:00Z,27.2040,-92.2030,73.8,302.0,30.6,-1.3,'1111122,1111122,1111122' 
ADCP,ioos:station:wmo:42368:1,2016-09-30T06:29:00Z,27.2040,-92.2030,73.8,304.0,30.8,-1.1,'1111122,1111122,1111122' 
ADCP,ioos:station:wmo:42368:1,2016-09-30T07:19:00Z,27.2040,-92.2030,73.8,302.0,31.2,-1.4,'1111122,1111122,1111122' 
ADCP,ioos:station:wmo:42368:1,2016-09-30T09:19:00Z,27.2040,-92.2030,73.8,309.0,26.4,-3.3,'1111122,1111122,1111122' 
ADCP,ioos:station:wmo:42368:1,2016-09-30T10:29:00Z,27.2040,-92.2030,73.8,303.0,28.0,-1.9,'1111122,1111122,1111122' 
ADCP,ioos:station:wmo:42368:1,2016-09-30T11:29:00Z,27.2040,-92.2030,73.8,311.0,26.5,-4.4,'1111122,1111122,1111122' 
ADCP,ioos:station:wmo:42368:1,2016-09-30T12:29:00Z,27.2040,-92.2030,73.8,305.0,21.1,-7.5,'1111122,1111122,1111122' 
ADCP,ioos:station:wmo:42368:1,2016-09-30T13:19:00Z,27.2040,-92.2030,73.9,297.0,24.4,-6.2,'1111122,1111122,1111122' 
ADCP,ioos:station:wmo:42368:1,2016-09-30T14:19:00Z,27.2040,-92.2030,73.9,304.0,22.9,-5.2,'1111122,1111122,1111122' 
ADCP,ioos:station:wmo:42368:1,2016-09-30T15:29:00Z,27.2040,-92.2030,73.9,296.0,22.7,-3.5,'1111122,1111122,1111122' 
ADCP,ioos:station:wmo:42368:1,2016-09-30T16:29:00Z,27.2040,-92.2030,73.9,288.0,20.6,-2.8,'1111122,1111122,1111122' 
ADCP,ioos:station:wmo:42368:1,2016-09-30T17:39:00Z,27.2040,-92.2030,73.9,278.0,24.7,-3.8,'1111122,1111122,1111122' 
ADCP,ioos:station:wmo:42368:1,2016-09-30T18:39:00Z,27.2040,-92.2030,73.9,283.0,27.3,-2.6,'1111122,1111122,1111122' 
ADCP,ioos:station:wmo:42368:1,2016-09-30T19:39:00Z,27.2040,-92.2030,73.9,284.0,26.9,-4.9,'1111122,1111122,1111122' 
ADCP,ioos:station:wmo:42368:1,2016-09-30T20:39:00Z,27.2040,-92.2030,73.9,286.0,30.7,-4.1,'1111122,1111122,1111122' 
ADCP,ioos:station:wmo:42368:1,2016-09-30T21:39:00Z,27.2040,-92.2030,73.9,292.0,28.3,-3.9,'1111122,1111122,1111122' 
ADCP,ioos:station:wmo:42368:1,2016-09-30T22:29:00Z,27.2040,-92.2030,73.9,289.0,27.7,-4.7,'1111122,1111122,1111122' 
ADCP,ioos:station:wmo:42368:1,2016-09-30T23:19:00Z,27.2040,-92.2030,73.9,288.0,28.0,-7.2,'1111122,1111122,1111122' 
 
DISCLAIMER: The Gulf of Mexico Coastal and Ocean Observing (GCOOS) Data Portal aggregates data from the regional data providers for the convenience of all data users. Data published on this website should not be used for navigation or certain other uses as we cannot guarantee data accuracy or availability. The data and delivery services are provided 'as is' without warranty of any kind. Data Source: Gulf of Mexico Coastal Ocean Observing System Data Portal (http://data.gcoos.org/) 
